Avoca, PA

5:18 AM EDT on April 24, 2018 (GMT -0400)
Wilkes-Barre-Scranton International

Weather History for KAVP - April, 2013

Change the Weather History Date:

Monday, April 29, 2013

  Actual Average Record
Temperature  
Mean Temperature 53 °F 54 °F  
Max Temperature 55 °F 65 °F 85 °F (1974)
Min Temperature 50 °F 43 °F 28 °F (2001)
Degree Days  
Heating Degree Days 12 12  
Month to date heating degree days 452 485  
Since 1 July heating degree days 5602 5962  
Cooling Degree Days 0 0  
Month to date cooling degree days 4 0  
Year to date cooling degree days 4 0  
Growing Degree Days 2 (Base 50)    
Moisture  
Dew Point 45 °F    
Average Humidity 65    
Maximum Humidity 83    
Minimum Humidity 46    
Precipitation  
Precipitation 0.09 in 0.11 in 1.55 in (1909)
Month to date precipitation 1.80 3.22  
Year to date precipitation 6.75 10.17  
Sea Level Pressure  
Sea Level Pressure 30.14 in    
Wind  
Wind Speed 3 mph (ESE)    
Max Wind Speed 14 mph    
Max Gust Speed 24 mph    
Visibility 9 miles    
Events Rain    
T = Trace of Precipitation, MM = Missing Value Source: NWS Daily Summary

Daily Weather History Graph

Daily Weather History Graph

Search for Another Location

Airport or City:

Astronomy

Apr. 29, 2013 Rise Set
Actual Time 6:02 AM EDT 7:58 PM EDT
Civil Twilight 5:32 AM EDT 8:28 PM EDT
Nautical Twilight 4:56 AM EDT 9:05 PM EDT
Astronomical Twilight 4:16 AM EDT 9:44 PM EDT
Moon No Moon Rise 9:19 AM EDT (4/29)
Length of Visible Light 14h 55m
Length of Day
13h 55m
Waning Gibbous, 80% of the Moon is Illuminated
Apr 29
Waning Gibbous
May 2
Last Quarter
May 9
New
May 18
First Quarter
May 25
Full

Hourly Weather History & Observations

Time (EDT) Temp. Dew Point Humidity Pressure Visibility Wind Dir Wind Speed Gust Speed Precip Events Conditions
12:54 AM 53.1 °F 37.9 °F 57% 30.14 in 10.0 mi SSE 10.4 mph 23.0 mph N/A   Overcast
1:54 AM 53.1 °F 37.0 °F 55% 30.14 in 10.0 mi Variable 4.6 mph - N/A   Overcast
2:54 AM 53.1 °F 33.1 °F 47% 30.13 in 10.0 mi Calm Calm - N/A   Overcast
3:54 AM 53.1 °F 34.0 °F 48% 30.13 in 10.0 mi Calm Calm - N/A   Overcast
4:54 AM 53.1 °F 37.9 °F 57% 30.12 in 10.0 mi ESE 3.5 mph - N/A   Overcast
5:54 AM 53.1 °F 39.9 °F 61% 30.13 in 10.0 mi Calm Calm - N/A   Overcast
6:54 AM 53.1 °F 41.0 °F 64% 30.14 in 10.0 mi Calm Calm - N/A   Overcast
7:05 AM 53.6 °F 42.8 °F 67% 30.15 in 10.0 mi South 4.6 mph - N/A   Overcast
7:33 AM 51.8 °F 44.6 °F 76% 30.15 in 2.5 mi Variable 3.5 mph - 0.01 in Rain Rain
7:42 AM 51.8 °F 44.6 °F 76% 30.15 in 4.0 mi Calm Calm - 0.02 in Rain Light Rain
7:54 AM 51.1 °F 46.0 °F 83% 30.14 in 6.0 mi SSE 3.5 mph - 0.03 in Rain Light Rain
8:15 AM 51.8 °F 46.4 °F 82% 30.14 in 10.0 mi Variable 3.5 mph - 0.00 in Rain Light Rain
8:54 AM 52.0 °F 46.0 °F 80% 30.14 in 10.0 mi NE 4.6 mph - 0.00 in Rain Light Rain
9:54 AM 53.1 °F 46.9 °F 80% 30.13 in 10.0 mi ESE 8.1 mph - 0.00 in   Overcast
10:54 AM 53.1 °F 46.9 °F 80% 30.14 in 10.0 mi ESE 5.8 mph - 0.01 in   Overcast
11:54 AM 53.1 °F 46.9 °F 80% 30.14 in 10.0 mi Variable 3.5 mph - 0.00 in Rain Light Rain
12:54 PM 54.0 °F 48.0 °F 80% 30.13 in 10.0 mi Calm Calm - 0.01 in Rain Light Rain
1:54 PM 54.0 °F 46.9 °F 77% 30.13 in 10.0 mi Variable 3.5 mph - 0.01 in   Overcast
2:54 PM 54.0 °F 48.0 °F 80% 30.13 in 9.0 mi SE 8.1 mph - 0.00 in Rain Light Rain
3:12 PM 53.6 °F 48.2 °F 82% 30.12 in 10.0 mi Variable 6.9 mph - 0.00 in Rain Light Rain
3:25 PM 53.6 °F 48.2 °F 82% 30.11 in 4.0 mi SE 8.1 mph 16.1 mph 0.02 in Rain Rain
3:32 PM 53.6 °F 48.2 °F 82% 30.11 in 5.0 mi SSE 6.9 mph - 0.03 in Rain Light Rain
3:54 PM 54.0 °F 48.0 °F 80% 30.11 in 10.0 mi Variable 5.8 mph - 0.03 in   Overcast
4:09 PM 53.6 °F 48.2 °F 82% 30.11 in 10.0 mi Variable 3.5 mph - 0.00 in Rain Light Rain
4:54 PM 55.0 °F 48.0 °F 77% 30.09 in 10.0 mi Variable 3.5 mph - 0.00 in   Overcast
5:54 PM 54.0 °F 48.0 °F 80% 30.11 in 10.0 mi ENE 3.5 mph - N/A   Overcast
6:54 PM 54.0 °F 48.0 °F 80% 30.12 in 10.0 mi Variable 3.5 mph - 0.00 in Rain Light Rain
7:45 PM 53.6 °F 46.4 °F 77% 30.13 in 10.0 mi Variable 4.6 mph - 0.00 in   Overcast
7:54 PM 53.1 °F 46.9 °F 80% 30.13 in 10.0 mi SE 5.8 mph - 0.00 in   Overcast
8:41 PM 53.6 °F 48.2 °F 82% 30.14 in 10.0 mi Variable 4.6 mph - N/A   Overcast
8:54 PM 53.1 °F 48.0 °F 83% 30.15 in 9.0 mi Variable 3.5 mph - N/A   Overcast
9:15 PM 53.6 °F 48.2 °F 82% 30.16 in 10.0 mi SE 4.6 mph - N/A   Overcast
9:38 PM 53.6 °F 48.2 °F 82% 30.16 in 10.0 mi Calm Calm - N/A   Overcast
9:54 PM 53.1 °F 48.0 °F 83% 30.17 in 10.0 mi ENE 3.5 mph - N/A   Overcast
10:41 PM 53.6 °F 48.2 °F 82% 30.17 in 10.0 mi Calm Calm - 0.00 in   Overcast
10:54 PM 53.1 °F 48.0 °F 83% 30.17 in 10.0 mi SE 3.5 mph - 0.00 in   Overcast
11:54 PM 53.1 °F 48.9 °F 86% 30.17 in 10.0 mi Calm Calm - N/A   Overcast